Wind_Speed
6 5 5 5 6 7 8 8 8 9 9 10 10 10 10 10 10 11 10 9 9 9 9 9 8 8 8 8 7 7 7 6 6 6 5 5 5 6 6 6 7 6 6
6 6 5 5 7 7 8 8 8 9 10 10 11 11 11 10 10 10 9 9 9 8 8 8 8 8 7 8 7 7 6 6 5 5 5 5 6 6 6 6 7 6 6
7 6 6 6 7 7 7 7 8 9 10 10 11 11 11 10 10 9 9 9 8 8 8 8 7 7 7 7 7 6 6 6 5 5 5 5 6 6 6 6 6 6 6
7 7 7 7 7 7 8 8 9 9 9 9 10 10 11 10 9 9 9 8 8 8 8 7 7 7 7 7 6 6 6 5 5 5 5 5 5 6 6 5 5 5 5
7 7 7 7 6 7 9 9 9 9 9 9 9 10 10 10 10 10 9 8 8 8 7 7 7 7 7 6 6 5 5 5 5 4 5 5 5 5 5 4 4 4 4
7 6 6 6 6 8 8 9 9 9 10 9 10 11 10 10 10 10 9 8 8 8 7 7 7 6 6 6 5 5 5 5 4 4 4 5 5 5 5 4 3 3 3
8 6 6 7 7 6 7 8 9 8 9 9 10 10 10 9 9 9 8 8 7 6 6 6 6 6 6 6 5 5 4 4 4 4 4 4 4 4 4 4 3 3 3
7 6 6 6 5 6 7 7 8 8 8 9 10 9 9 9 9 9 8 8 7 6 6 6 6 5 5 5 4 4 4 3 3 3 3 3 4 4 4 4 3 3 3
8 7 6 5 5 6 6 7 8 8 8 8 8 8 9 9 9 9 8 7 7 7 6 6 6 5 5 4 3 3 3 2 2 3 3 3 3 3 4 4 4 3 3
9 8 7 6 5 4 5 6 7 7 7 7 8 8 8 8 9 8 8 7 6 6 6 6 5 5 4 4 3 2 2 2 2 2 3 3 3 4 4 4 4 4 3
10 9 8 7 6 5 5 5 6 7 7 7 7 7 7 7 7 8 7 7 6 6 5 5 4 4 4 3 3 2 2 1 2 1 2 4 4 4 5 5 4 4 4
10 9 8 7 6 6 5 5 5 6 6 6 7 7 7 6 6 7 7 7 6 6 5 4 4 4 3 3 3 2 2 1 1 2 2 3 5 5 5 5 5 5 5
11 10 9 8 7 6 5 5 5 6 5 6 6 7 7 6 6 7 6 6 6 6 5 4 4 3 3 3 3 3 3 2 2 2 2 3 4 5 6 6 7 6 6
12 10 10 9 8 7 6 5 6 5 5 5 6 6 6 5 6 6 6 6 6 6 5 4 3 3 3 3 3 3 3 3 3 3 3 3 4 5 5 6 6 7 7
13 11 10 9 8 7 6 6 5 5 4 5 5 5 4 4 5 6 6 5 6 6 5 4 4 3 3 3 3 3 4 4 4 4 4 4 5 5 6 6 7 7 8
12 12 11 10 9 8 7 7 5 5 4 4 4 3 3 3 4 4 5 5 5 6 5 5 4 4 4 3 3 4 4 4 5 5 5 5 5 6 6 6 7 7 8
12 11 11 10 10 9 8 7 6 5 5 4 4 3 3 3 3 3 4 5 5 5 5 5 5 5 5 4 4 4 4 5 5 5 5 6 6 6 6 7 7 7 8
11 11 10 10 9 9 9 8 6 5 5 4 4 3 2 2 2 2 4 5 5 5 4 4 4 4 5 5 4 4 4 4 4 5 5 6 7 7 7 7 8 8 8
10 10 10 9 9 9 9 8 7 6 5 4 3 2 2 1 1 1 2 3 4 4 4 3 4 4 4 4 5 5 5 5 5 6 6 7 8 8 8 8 9 9 9
9 9 8 8 8 8 8 8 7 7 6 5 4 2 2 1 1 0 1 3 3 4 4 4 3 3 4 5 6 6 6 6 7 8 8 8 8 9 9 9 9 10 10
7 7 7 7 7 7 7 6 6 6 6 5 4 3 2 2 2 1 0 2 3 3 4 4 4 4 5 6 6 6 6 7 7 8 9 9 9 9 10 10 10 11 11
5 6 5 5 5 6 6 5 5 5 5 4 4 3 3 2 2 2 1 0 1 2 2 3 4 4 5 6 6 6 6 7 7 8 9 10 11 11 11 11 11 11 11
5 6 5 5 5 5 6 5 4 5 5 4 3 3 4 3 3 3 2 1 1 2 2 3 4 5 5 6 7 7 8 8 9 9 9 10 11 11 12 12 12 12 12
7 6 6 6 6 5 5 5 5 5 5 4 4 3 3 4 4 3 3 3 3 4 4 4 4 4 5 6 7 8 8 9 9 9 10 10 11 12 12 12 12 13 13
9 8 8 7 6 6 6 5 5 5 5 5 5 4 4 5 5 5 4 4 5 5 5 5 5 6 6 7 7 8 8 9 9 10 10 11 11 12 12 13 13 13 14
11 11 9 9 8 8 7 6 6 6 6 6 6 6 6 6 6 6 6 6 6 6 6 6 7 7 7 8 8 9 9 10 10 10 10 11 11 11 12 13 14 14 14
Wind_Direction
118 129 135 137 132 135 139 137 141 140 135 133 132 134 137 136 132 131 133 132 129 128 125 122 121 122 120 120 117 114 112 113 117 117 118 118 118 121 122 121 112 107 105
114 125 136 141 133 133 139 137 140 143 139 135 132 131 131 131 132 132 133 131 126 125 128 129 124 124 122 120 118 117 115 113 117 121 124 126 127 124 120 119 115 110 107
112 121 133 140 134 136 143 140 140 142 139 139 136 134 135 134 133 132 134 132 130 129 130 132 130 126 123 123 122 121 121 120 119 122 123 129 132 129 124 122 121 116 112
110 119 131 131 137 140 148 145 143 143 145 142 143 141 138 139 138 134 136 134 131 132 132 132 133 129 126 123 123 123 125 124 126 123 124 129 137 132 128 124 122 124 119
99 109 120 126 134 138 146 146 146 144 148 147 149 147 144 143 140 139 142 141 137 135 133 132 130 129 131 128 127 126 130 134 129 127 128 133 139 138 137 130 125 129 125
95 102 114 124 133 137 143 149 148 147 145 146 151 148 146 148 146 144 146 145 142 140 137 137 134 132 133 133 131 129 134 137 129 132 136 139 142 143 144 141 138 135 130
88 94 108 120 131 142 146 148 151 151 148 150 154 154 152 153 149 147 147 147 146 143 144 144 145 138 138 135 128 131 135 131 131 137 145 148 150 151 153 154 155 152 143
85 95 103 107 124 138 140 138 143 153 152 154 155 157 159 158 156 150 149 149 152 154 153 154 151 148 144 141 140 144 139 140 144 147 161 173 171 170 175 176 177 170 159
82 91 96 104 112 133 140 143 140 146 153 157 158 158 161 161 158 154 153 154 157 161 163 162 159 158 156 152 151 156 150 154 165 167 173 183 185 187 193 192 193 181 179
77 87 92 103 119 125 132 140 143 147 152 153 157 156 160 160 161 161 161 160 161 170 171 169 170 172 169 166 163 162 162 166 170 173 184 193 204 210 206 198 200 196 197
75 82 89 93 103 113 121 134 143 151 154 156 158 158 160 162 164 168 168 165 165 166 170 175 173 170 167 165 164 161 153 178 193 197 201 208 215 218 216 214 215 216 218
73 78 84 85 93 106 112 125 140 150 154 159 158 157 160 162 165 167 169 168 171 173 171 171 170 170 173 171 176 183 181 188 222 231 221 222 224 228 231 229 229 230 236
70 74 76 79 87 99 104 111 125 135 149 156 158 154 154 162 168 170 173 175 178 178 175 174 177 176 175 185 193 205 210 217 225 237 223 231 234 236 241 243 241 243 249
67 69 71 73 80 89 99 103 113 127 140 148 154 153 158 163 166 171 171 180 183 182 184 188 192 193 197 203 210 221 233 242 245 249 242 245 241 239 245 248 249 253 254
64 66 68 71 76 81 87 92 104 120 127 140 142 148 157 166 169 175 180 182 188 193 195 195 207 217 219 216 218 226 237 244 250 254 250 253 252 246 249 253 257 260 259
60 62 65 70 73 76 80 86 95 112 125 130 137 145 158 163 169 181 186 186 193 203 210 215 221 233 233 227 232 242 246 254 252 247 249 254 259 260 258 261 264 267 266
56 58 61 65 68 72 76 79 84 93 112 127 135 135 136 151 166 180 188 192 196 205 214 219 226 238 241 242 243 250 257 259 249 248 253 256 260 265 268 268 272 271 272
50 54 57 61 64 66 67 70 75 81 88 107 124 129 122 121 142 170 184 192 198 206 213 221 229 242 251 249 246 255 260 260 251 254 256 259 262 267 273 275 275 275 276
43 47 52 57 58 60 58 61 67 71 75 86 98 105 94 90 106 139 185 197 206 210 218 230 237 246 253 250 256 259 262 261 259 260 263 265 266 267 272 276 276 278 277
35 39 46 53 53 53 52 56 61 64 68 70 73 72 63 59 63 79 201 208 219 231 236 238 246 250 257 258 263 264 268 272 272 268 266 266 269 272 274 276 277 279 280
26 28 33 41 44 43 45 48 53 55 54 55 58 62 58 53 50 44 316 219 221 234 243 251 258 258 265 264 263 266 271 276 279 275 269 267 270 273 275 276 279 281 281
4 6 7 17 21 23 24 28 32 33 36 38 41 41 37 33 26 15 9 211 216 235 251 258 264 274 273 270 266 269 273 276 281 280 276 274 273 274 275 276 279 282 283
332 342 344 346 351 360 2 359 6 17 14 14 21 18 19 16 1 347 337 318 271 282 288 274 268 268 277 275 273 273 275 279 282 284 283 278 276 277 277 278 278 282 281
307 317 321 318 324 331 344 349 351 351 354 354 351 352 354 356 351 334 316 302 284 287 298 297 285 281 279 278 275 275 276 281 285 286 287 286 283 282 279 277 279 278 280
295 300 302 302 308 317 328 335 341 337 331 332 328 320 318 319 321 320 312 308 299 288 295 306 305 293 288 285 282 278 279 283 287 286 288 288 287 285 283 281 281 281 281
287 288 287 293 300 304 306 312 318 322 319 313 311 304 302 299 297 301 301 302 302 298 295 295 303 300 295 295 291 288 287 289 291 291 291 292 292 289 288 288 285 286 288
Height
5874 5874 5874 5875 5875 5875 5876 5877 5878 5878 5879 5880 5881 5881 5882 5883 5884 5886 5887 5888 5889 5889 5890 5891 5891 5892 5893 5893 5894 5895 5895 5895 5895 5896 5896 5896 5896 5897 5897 5897 5898 5898 5898
5875 5875 5875 5875 5876 5876 5877 5877 5878 5879 5880 5881 5882 5883 5884 5885 5886 5887 5888 5889 5890 5890 5891 5892 5893 5893 5894 5894 5895 5895 5896 5896 5897 5897 5897 5897 5897 5898 5898 5898 5899 5899 5899
5876 5875 5875 5876 5877 5877 5878 5878 5879 5880 5881 5882 5883 5884 5885 5886 5887 5888 5889 5890 5891 5891 5892 5892 5893 5894 5895 5895 5896 5896 5897 5897 5898 5898 5898 5898 5898 5899 5899 5900 5900 5900 5900
5876 5876 5876 5877 5877 5878 5878 5879 5880 5881 5881 5882 5883 5884 5885 5886 5887 5889 5890 5891 5892 5892 5893 5893 5894 5895 5895 5896 5897 5897 5898 5898 5898 5899 5899 5899 5899 5900 5900 5901 5901 5901 5902
5877 5877 5877 5877 5878 5878 5879 5880 5881 5881 5882 5883 5884 5885 5886 5887 5888 5889 5890 5892 5892 5893 5893 5894 5895 5895 5896 5897 5898 5898 5898 5899 5899 5899 5900 5900 5900 5901 5901 5902 5902 5902 5902
5879 5879 5878 5878 5879 5879 5879 5881 5882 5882 5883 5884 5885 5886 5887 5888 5889 5890 5891 5892 5893 5894 5894 5895 5895 5896 5897 5897 5898 5899 5899 5899 5900 5900 5900 5901 5901 5902 5902 5903 5903 5903 5903
5880 5880 5879 5880 5880 5880 5880 5881 5882 5883 5884 5885 5886 5887 5888 5889 5890 5891 5892 5893 5894 5894 5895 5895 5896 5897 5897 5898 5898 5899 5900 5900 5900 5900 5901 5901 5902 5903 5903 5904 5904 5904 5904
5881 5881 5881 5881 5881 5881 5881 5882 5882 5883 5884 5885 5887 5888 5888 5889 5890 5891 5892 5893 5894 5895 5895 5896 5897 5897 5898 5898 5899 5899 5900 5900 5900 5901 5901 5902 5902 5903 5904 5904 5905 5905 5905
5882 5882 5882 5882 5882 5882 5882 5882 5883 5884 5885 5886 5887 5888 5889 5889 5890 5891 5892 5893 5894 5895 5896 5896 5897 5897 5898 5899 5899 5899 5900 5900 5900 5901 5901 5902 5903 5903 5904 5904 5905 5905 5905
5884 5884 5883 5883 5883 5883 5883 5883 5884 5884 5885 5886 5887 5888 5889 5889 5890 5891 5892 5893 5894 5895 5896 5896 5897 5898 5898 5899 5899 5900 5900 5900 5900 5901 5901 5902 5902 5903 5903 5904 5904 5905 5905
5886 5885 5885 5885 5884 5884 5884 5884 5884 5885 5886 5887 5887 5888 5889 5890 5890 5891 5892 5893 5894 5895 5896 5896 5897 5898 5898 5899 5899 5899 5900 5900 5900 5900 5901 5902 5902 5903 5903 5903 5904 5904 5904
5888 5887 5887 5886 5886 5885 5885 5885 5885 5886 5886 5887 5888 5888 5889 5890 5891 5891 5893 5893 5894 5895 5896 5896 5897 5897 5898 5898 5899 5899 5900 5900 5900 5900 5900 5901 5902 5902 5902 5903 5903 5903 5903
5890 5889 5889 5888 5887 5887 5887 5886 5886 5887 5887 5888 5888 5889 5889 5890 5891 5891 5892 5893 5894 5895 5895 5896 5897 5897 5898 5898 5899 5899 5899 5899 5900 5900 5900 5900 5901 5901 5902 5902 5902 5902 5902
5892 5891 5890 5890 5889 5888 5888 5887 5887 5888 5888 5889 5889 5890 5890 5890 5891 5891 5892 5893 5894 5894 5895 5896 5896 5897 5897 5898 5898 5898 5899 5899 5899 5899 5899 5900 5900 5900 5900 5900 5901 5901 5901
5895 5893 5892 5891 5891 5890 5889 5889 5889 5889 5889 5889 5890 5890 5890 5891 5891 5891 5892 5893 5893 5894 5895 5896 5897 5897 5897 5898 5898 5898 5898 5898 5898 5898 5899 5899 5899 5899 5899 5899 5899 5899 5899
5897 5896 5895 5894 5893 5892 5891 5891 5890 5890 5890 5890 5891 5891 5891 5891 5891 5891 5892 5892 5893 5894 5895 5895 5896 5896 5897 5897 5897 5897 5897 5897 5897 5897 5897 5898 5898 5898 5898 5898 5898 5897 5897
5899 5898 5897 5896 5894 5893 5893 5892 5891 5891 5891 5891 5891 5891 5891 5891 5891 5891 5891 5892 5892 5893 5894 5894 5895 5895 5896 5896 5896 5896 5896 5896 5896 5896 5896 5896 5896 5896 5896 5896 5896 5896 5896
5901 5900 5898 5897 5896 5895 5894 5893 5893 5892 5892 5892 5892 5892 5891 5891 5891 5891 5891 5891 5892 5892 5893 5894 5894 5894 5894 5895 5895 5895 5895 5895 5895 5895 5895 5895 5895 5895 5895 5895 5894 5894 5894
5903 5901 5900 5899 5898 5897 5896 5895 5894 5894 5893 5893 5892 5892 5892 5891 5891 5891 5891 5891 5891 5892 5892 5892 5893 5893 5893 5894 5894 5894 5894 5894 5894 5894 5894 5894 5893 5893 5893 5893 5892 5892 5892
5904 5903 5902 5901 5899 5898 5897 5896 5895 5895 5894 5893 5892 5892 5892 5891 5891 5891 5891 5891 5891 5891 5891 5892 5892 5892 5892 5893 5893 5893 5893 5893 5892 5892 5892 5892 5892 5891 5891 5891 5890 5890 5889
5905 5904 5903 5902 5900 5899 5898 5897 5896 5895 5895 5894 5893 5892 5892 5891 5891 5890 5890 5890 5890 5891 5891 5891 5891 5891 5891 5891 5892 5892 5891 5891 5891 5890 5890 5890 5890 5889 5889 5889 5888 5888 5887
5906 5905 5903 5902 5901 5900 5899 5898 5897 5896 5895 5894 5893 5892 5892 5891 5891 5890 5890 5890 5890 5890 5890 5890 5890 5890 5890 5890 5890 5890 5890 5890 5889 5888 5888 5888 5887 5887 5887 5886 5886 5885 5885
5906 5905 5904 5903 5901 5900 5899 5898 5897 5896 5895 5894 5893 5893 5892 5891 5891 5890 5890 5889 5889 5889 5889 5888 5888 5888 5888 5888 5888 5888 5888 5888 5887 5887 5886 5885 5885 5885 5884 5884 5884 5883 5882
5905 5904 5903 5902 5901 5900 5899 5897 5896 5896 5895 5894 5893 5892 5892 5891 5891 5890 5890 5889 5889 5888 5888 5887 5887 5886 5886 5886 5886 5886 5886 5886 5885 5885 5884 5883 5882 5882 5881 5881 5881 5880 5880
5904 5903 5902 5901 5900 5899 5898 5897 5896 5895 5894 5893 5892 5892 5891 5891 5890 5889 5889 5888 5888 5887 5887 5886 5885 5885 5884 5884 5884 5884 5883 5883 5883 5882 5882 5881 5880 5879 5879 5878 5877 5877 5876
5902 5901 5901 5900 5899 5898 5897 5896 5895 5894 5893 5892 5891 5891 5890 5889 5889 5888 5887 5887 5886 5886 5885 5884 5884 5883 5883 5882 5882 5882 5881 5881 5880 5879 5879 5878 5877 5876 5876 5875 5874 5874 5873